Location: Ammerl�gen
(47.2167°N, 9.6000°E)
Time: 13:15:40
(UTC+00:00)

Cosmos 676 Rocket - Pass Details

Date: 02 August 2021
Orbit: 755 x 783 km, 74.0° (Epoch: 26 September)

Event Time Altitude Azimuth Distance (km) Brightness Sun altitude
Exits shadow 01:25:31 38° 190° (S) 1,176 4.5 -19.9°
Maximum altitude 01:27:35 79° 110° (ESE) 802 4.0 -19.7°
Drops below altitude 10° 01:32:56 10° 24° (NNE) 2,348 7.7 -19.2°
Sets 01:35:20 0° 24° (NNE) 3,278 8.9 -19.0°
